STARLINK-1929 (46788 NORAD) Tracking and Keplerian Element Data

This shows tracking and keplerian element data for the satellite.

Feedback or suggestion? Click here.




ElementValue
Catalog46788
NameSTARLINK-1929
Epoch Orbit1310
Epoch Day15.16667824
Epoch Year2021
RAAN116.2675
Inclination53.0543
Eccentricity0.0002314
Argument of Perigee29.5293
Mean Anonmoly107.7593
Mean Motion15.62697926
Decay Rate0.00064359
L11 46788U 20074BB 21015.16667824 .00064359 00000-0 70464-3 0 9996
L22 46788 53.0543 116.2675 0002314 29.5293 107.7593 15.62697926 13103

Live tracking and technical data element details for STARLINK-1929 (NORAD 46788). STARLINK-1929 can be tracked NOW for your location showing map with azimuth and elevation plus other details from your city location.

Track the satellite on the map from your city or location and see movement details for azimuth, elevation, latitude, longitude, range, height, and movement on the map or in text.







IsCatalogInMostPopularTable: catalog: 46788, numindb: 31
Update: records affected: 1



GetName: 46788 STARLINK-1929

Hit Count: updated at: Sat, 16 Jan 2021 00:37:03 GMT